Somerville, NJ

6:17 AM EST on November 19, 2017 (GMT -0500)
Somerset

Weather History for KSMQ - September, 2012

Change the Weather History Date:

Sunday, September 16, 2012

  Actual Average Record
Temperature  
Mean Temperature 60 °F -  
Max Temperature 75 °F 74 °F 90 °F (1941)
Min Temperature 46 °F 50 °F 38 °F (1975)
Degree Days  
Heating Degree Days 6    
Growing Degree Days 10 (Base 50)    
Moisture  
Dew Point 48 °F    
Average Humidity 70    
Maximum Humidity 93    
Minimum Humidity 35    
Precipitation  
Precipitation 0.00 in - - ()
Sea Level Pressure  
Sea Level Pressure 30.09 in    
Wind  
Wind Speed 1 mph (NW)    
Max Wind Speed 7 mph    
Max Gust Speed -    
Visibility 10 miles    
Events      
Averages and records for this station are not official NWS values.
T = Trace of Precipitation, MM = Missing Value Source: NWS Daily Summary

Daily Weather History Graph

Daily Weather History Graph

Search for Another Location

Airport or City:

Trip Planner

Search our weather history database for the weather conditions in past years. The results will help you decide how hot, cold, wet, or windy it might be!

Date:

Astronomy

Sep. 16, 2012 Rise Set
Actual Time 6:40 AM EDT 7:05 PM EDT
Civil Twilight 6:13 AM EDT 7:32 PM EDT
Nautical Twilight 5:41 AM EDT 8:04 PM EDT
Astronomical Twilight 5:08 AM EDT 8:37 PM EDT
Moon 7:17 AM EDT (9/16) 7:08 PM EDT (9/16)
Length of Visible Light 13h 19m
Length of Day
12h 24m
New Moon, 0% of the Moon is Illuminated
Sep 16
New Moon
Sep 22
First Quarter
Sep 29
Full
Oct 8
Last Quarter
Oct 15
New

Hourly Weather History & Observations

Time (EDT) Temp. Dew Point Humidity Pressure Visibility Wind Dir Wind Speed Gust Speed Precip Events Conditions
12:53 AM 50.0 °F 48.0 °F 93% 30.13 in 10.0 mi Calm Calm - N/A   Clear
1:53 AM 48.9 °F 46.9 °F 93% 30.12 in 10.0 mi Calm Calm - N/A   Clear
2:53 AM 48.0 °F 46.0 °F 93% 30.11 in 10.0 mi Calm Calm - N/A   Clear
3:53 AM 46.9 °F 45.0 °F 93% 30.10 in 10.0 mi Calm Calm - N/A   Mostly Cloudy
4:53 AM 50.0 °F 46.9 °F 89% 30.11 in 10.0 mi Calm Calm - N/A   Overcast
5:53 AM 50.0 °F 46.9 °F 89% 30.12 in 10.0 mi Calm Calm - N/A   Overcast
6:53 AM 48.0 °F 46.0 °F 93% 30.12 in 10.0 mi Calm Calm - N/A   Clear
7:53 AM 51.8 °F 48.2 °F 88% 30.13 in 10.0 mi Calm Calm - N/A   Clear
8:53 AM 57.9 °F 52.0 °F 81% 30.13 in 10.0 mi Calm Calm - N/A   Clear
9:53 AM 64.0 °F 52.0 °F 65% 30.13 in 10.0 mi Calm Calm - N/A   Clear
10:53 AM 69.1 °F 50.0 °F 51% 30.11 in 10.0 mi North 3.5 mph - N/A   Clear
11:53 AM 72.0 °F 46.0 °F 40% 30.09 in 10.0 mi WNW 6.9 mph - N/A   Clear
12:53 PM 73.9 °F 45.0 °F 35% 30.08 in 10.0 mi Variable 5.8 mph - N/A   Mostly Cloudy
1:53 PM 73.9 °F 45.0 °F 35% 30.06 in 10.0 mi Variable 3.5 mph - N/A   Mostly Cloudy
2:53 PM 73.0 °F 45.0 °F 37% 30.05 in 10.0 mi NNW 4.6 mph - N/A   Partly Cloudy
3:53 PM 73.9 °F 46.0 °F 37% 30.04 in 10.0 mi SW 4.6 mph - N/A   Scattered Clouds
4:53 PM 73.9 °F 46.0 °F 37% 30.03 in 10.0 mi Variable 3.5 mph - N/A   Scattered Clouds
5:53 PM 72.0 °F 45.0 °F 38% 30.03 in 10.0 mi WNW 3.5 mph - N/A   Clear
6:53 PM 64.0 °F 50.0 °F 60% 30.04 in 10.0 mi Calm Calm - N/A   Clear
7:53 PM 59.0 °F 50.0 °F 72% 30.05 in 10.0 mi Calm Calm - N/A   Clear
8:53 PM 55.9 °F 51.1 °F 84% 30.06 in 10.0 mi Calm Calm - N/A   Clear
9:53 PM 54.0 °F 51.1 °F 90% 30.07 in 10.0 mi Calm Calm - N/A   Clear
10:53 PM 51.1 °F 48.9 °F 92% 30.08 in 9.0 mi NW 3.5 mph - N/A   Clear
11:53 PM 50.0 °F 46.9 °F 89% 30.08 in 3.0 mi Calm Calm - N/A   Clear